STARLINK-36057

Last updated on Fri Dec 19 2025 00:02:08 GMT+0000 (Coordinated Universal Time)

1 66884U 25283G 25352.58336806 -.01331844 00000+0 -82618-2 0 9990 2 66884 53.1554 44.4171 0001029 71.7618 61.8575 15.78876538 3362
UTC large
Height (km)
Speed (km/s)
/
Latitude / Longitude
Inclination (degrees)
Orbital Period (minutes)
Azimuth
Elevation
Range (km)
Doppler Factor

Next 0 passes for location: London (51.5072 / 0.1276)

Sorry there are no passes over London.